Location: Unspecified
(49.2170°N, 0.0000°E)
Time: 15:44:26
(UTC+00:00)

Tiros 1 despin weight - Pass Details

Date: 21 January 2021
Orbit: 593 x 642 km, 48.2° (Epoch: 07 March)

Event Time Altitude Azimuth Distance (km) Brightness Sun altitude
Rises 19:27:35 0° 279° (W) 2,851 ? -27.1°
Reaches altitude 10° 19:29:54 10° 276° (W) 1,941 ? -27.5°
Enters shadow 19:33:14 46° 250° (WSW) 806 ? -28.0°
Maximum altitude 19:34:17 61° 196° (SSW) 678 - -28.2°
Drops below altitude 10° 19:38:37 10° 116° (ESE) 1,922 - -28.9°
Sets 19:40:55 0° 113° (ESE) 2,821 - -29.3°
